Location: Battersea Observatory
(44.4318°N, 76.3841°W)
Time: 22:50:13
(UTC-04:00)

Tiros 1 despin weight - Pass Details

Date: 24 January 2022
Orbit: 592 x 639 km, 48.2° (Epoch: 25 May)

Event Time Altitude Azimuth Distance (km) Brightness Sun altitude
Rises 17:32:35 0° 238° (WSW) 2,869 ? -5.5°
Reaches altitude 10° 17:34:52 10° 235° (SW) 1,975 ? -5.9°
Maximum altitude 17:39:24 70° 153° (SSE) 667 ? -6.7°
Drops below altitude 10° 17:44:00 10° 70° (ENE) 2,013 ? -7.4°
Enters shadow 17:44:10 - 70° (ENE) 2,075 ? -7.5°
Sets 17:46:21 0° 68° (ENE) 2,929 - -7.8°
